Theta_e
326 331 334 333 329 329 334 333 331 334 331 335 337 337 338 339 341 341 336 336 334 325 326 326 326 316 315 325 326 323 319 318 318 317 315 312 311 323 329 332 332 332 330 329 325 322 318 315 314
328 332 332 331 331 334 333 329 332 330 333 335 336 337 338 338 337 336 336 336 333 325 329 330 331 326 317 323 329 325 320 317 315 314 312 311 310 315 320 330 330 328 326 320 317 316 315 314 314
330 332 329 328 332 335 333 328 329 330 333 335 336 339 339 338 337 337 336 336 327 325 330 333 331 330 319 316 329 326 317 314 314 313 311 310 310 311 314 316 315 317 319 314 314 314 313 311 312
329 329 328 330 332 332 328 329 330 330 332 334 336 336 339 339 337 336 337 336 329 326 326 329 330 332 326 316 316 315 314 312 312 311 311 310 310 310 309 309 310 311 313 312 312 312 311 311 312
326 328 327 328 330 330 328 331 331 328 330 332 335 337 339 338 339 337 337 336 330 331 327 326 325 328 328 331 321 317 314 314 314 314 314 312 311 310 310 310 310 309 309 309 309 310 310 311 312
325 328 328 327 328 328 328 332 330 328 329 335 338 339 339 339 339 336 336 335 332 332 328 327 325 324 326 331 329 325 322 320 319 319 319 317 315 313 311 311 311 311 310 310 310 310 310 311 311
325 326 329 328 329 330 328 330 326 326 329 329 337 336 338 338 337 337 336 336 334 331 328 328 325 325 325 326 328 327 324 324 321 319 320 321 320 318 315 313 313 312 312 312 312 312 312 312 313
324 325 331 328 326 331 328 329 327 328 328 331 337 337 338 338 338 337 336 336 335 335 328 327 324 324 322 322 324 326 325 325 325 325 324 323 323 323 323 321 317 314 313 313 314 317 319 321 322
323 324 329 329 327 329 328 327 330 331 330 332 333 337 336 338 337 337 337 336 335 335 331 327 324 323 324 324 325 326 326 326 326 326 326 326 325 324 326 323 323 323 322 322 322 323 323 323 323
322 324 327 326 325 328 328 329 331 330 329 331 337 336 338 339 337 337 336 335 335 333 333 328 327 328 327 328 328 328 327 327 327 325 325 325 326 328 329 327 326 325 324 324 324 324 323 324 325
321 323 324 326 327 326 328 330 331 329 327 330 338 339 339 338 337 337 336 335 335 333 334 334 333 334 333 333 330 327 322 320 317 317 317 322 329 331 331 331 330 331 327 324 325 328 327 327 326
320 324 326 326 326 327 327 331 331 329 329 329 335 338 339 338 338 337 336 335 336 335 335 334 334 334 334 334 327 325 322 320 318 319 320 319 319 322 326 326 327 326 327 326 325 326 326 325 325
320 320 323 325 326 327 328 330 329 330 330 329 336 339 339 338 338 337 336 336 336 336 336 333 333 331 330 327 325 323 320 318 317 316 317 317 315 315 321 319 320 326 327 325 325 325 325 324 324
319 319 320 325 325 328 328 329 331 329 331 330 334 338 338 337 337 337 337 336 336 336 336 336 333 331 330 326 323 322 321 320 320 318 318 316 316 315 316 319 322 321 321 322 322 323 324 324 321
320 319 323 325 325 326 327 329 329 330 333 333 336 337 337 337 337 337 336 335 335 334 335 335 333 329 325 324 322 321 323 323 322 322 321 318 316 314 315 316 318 319 322 324 323 322 323 323 323
321 320 326 324 322 324 326 331 326 330 332 333 335 336 337 337 336 336 336 335 336 334 334 335 332 328 325 323 324 323 323 323 323 322 321 319 317 315 314 314 314 317 319 325 325 325 325 325 325
322 324 323 320 314 316 325 329 326 330 332 333 333 335 336 336 336 335 335 334 334 334 334 333 333 332 329 327 326 325 326 326 325 326 325 321 318 316 314 314 313 315 319 322 325 325 327 327 325
327 323 322 317 314 314 325 325 323 326 329 332 333 332 334 334 334 334 334 334 334 334 333 333 333 333 331 330 330 329 330 328 328 327 325 323 320 318 315 314 313 312 313 318 326 328 327 326 326
323 321 324 320 316 317 316 316 316 322 325 325 327 332 332 332 332 332 333 333 333 332 332 333 334 334 333 333 332 330 330 331 330 328 328 327 324 321 316 314 314 312 311 312 319 326 326 327 325
323 323 323 321 317 318 316 319 316 316 320 325 325 327 331 332 332 332 332 332 331 332 333 333 333 333 334 334 334 333 332 331 331 331 330 329 327 323 319 315 314 313 311 312 314 322 325 327 325
320 324 322 322 318 317 319 322 320 318 315 321 323 323 323 325 327 328 329 330 331 331 332 332 332 333 333 333 333 333 331 329 328 329 329 328 327 324 320 316 315 313 311 311 313 320 327 324 325
322 320 318 318 321 325 319 325 319 318 319 314 320 321 322 318 317 317 317 318 325 328 330 329 329 329 328 328 328 327 326 325 326 326 326 325 323 322 319 317 315 313 311 311 313 322 326 326 325
320 320 316 317 318 317 316 318 316 316 318 314 314 316 316 315 314 314 313 312 313 315 316 318 318 318 318 318 317 316 318 318 320 322 322 322 321 320 319 318 314 312 312 312 314 314 327 324 324
316 317 317 316 317 320 317 315 315 316 315 314 309 311 310 309 309 309 310 309 309 309 309 309 309 310 310 310 310 310 310 311 314 316 316 317 318 318 318 318 314 312 312 312 315 318 321 324 323
315 316 318 319 319 319 311 315 316 314 311 308 307 309 309 310 310 311 311 311 311 311 311 311 311 311 311 311 312 311 311 310 310 312 314 316 317 317 317 316 313 312 313 313 314 316 320 322 323
316 316 315 317 317 315 308 315 313 310 309 309 310 310 310 311 311 310 310 310 310 310 310 310 310 311 311 311 312 311 311 310 310 310 312 314 315 316 316 314 312 313 314 314 316 318 319 321 322
314 315 311 308 303 309 309 308 307 308 307 308 309 310 311 310 310 310 310 310 310 310 309 309 309 309 310 310 311 312 311 310 310 310 311 312 313 313 313 313 313 313 314 315 318 320 321 321 321
311 307 310 307 303 305 304 307 305 307 307 307 308 309 310 310 310 310 310 310 310 310 310 310 309 309 309 309 309 309 311 312 311 311 311 312 312 312 312 312 313 313 314 316 318 321 321 320 314
311 308 308 307 307 306 306 305 307 307 307 307 308 309 310 310 310 310 310 309 309 309 309 309 309 309 309 309 309 309 308 310 311 311 311 311 311 311 311 312 312 313 314 316 318 319 319 314 306
311 308 309 306 307 305 307 307 308 306 307 308 309 310 311 310 309 309 309 308 308 307 306 306 306 307 308 308 308 308 308 308 308 309 310 309 310 310 310 311 312 313 314 315 317 318 315 309 304
Wind_Speed
3 9 6 3 4 4 5 4 6 6 5 13 14 12 11 9 4 5 17 14 15 17 16 16 12 12 13 14 12 10 9 7 8 7 6 5 6 7 8 8 7 6 4 4 5 7 8 8 10
5 7 3 1 3 2 5 1 7 5 15 15 16 12 8 3 12 22 22 15 15 17 17 17 14 12 13 14 11 8 8 6 6 5 5 5 7 8 8 6 3 1 1 5 4 5 7 8 8
4 3 1 3 2 3 3 4 7 11 13 10 5 12 5 6 24 22 18 16 18 18 17 16 14 12 12 13 12 8 6 6 5 4 5 7 8 8 7 6 4 6 2 1 3 5 7 11 10
2 1 4 1 2 7 5 8 19 8 10 7 15 8 9 5 18 21 19 15 17 19 16 14 13 12 12 12 10 7 6 7 7 7 7 7 7 6 5 4 3 3 3 1 3 5 5 7 9
1 2 1 2 3 3 4 18 17 6 6 7 8 4 7 18 13 21 21 16 15 17 15 14 13 12 10 9 10 9 9 9 8 8 7 7 6 5 3 3 4 5 5 4 4 4 4 4 6
3 2 1 4 1 3 4 20 19 11 10 14 17 10 6 13 16 26 23 17 14 14 15 13 13 12 11 9 9 9 9 8 7 7 7 6 6 5 3 1 2 3 3 4 5 5 6 5 6
1 1 3 4 2 3 5 17 13 11 14 7 22 5 15 17 24 25 21 15 13 12 14 13 12 12 12 10 8 8 8 7 7 6 7 5 5 4 3 2 2 3 3 4 5 5 6 6 6
4 1 3 4 4 4 11 12 14 19 4 16 16 7 11 24 27 22 19 14 11 9 13 13 12 11 11 11 10 7 5 5 5 2 3 2 2 2 2 2 2 2 3 3 3 4 5 5 5
4 2 2 5 3 4 17 7 8 13 16 7 5 17 18 27 28 24 22 17 14 9 13 13 13 11 10 10 8 7 5 3 2 2 1 0 1 2 2 1 2 4 4 4 4 4 5 6 6
5 3 5 3 2 2 15 14 16 9 13 9 17 14 31 29 30 27 24 20 16 12 10 9 12 12 10 8 9 7 6 5 4 4 4 2 1 3 3 5 4 5 6 6 6 5 4 5 4
3 4 4 3 6 7 9 10 7 22 2 13 30 35 33 28 29 27 25 20 19 11 12 12 12 11 10 9 7 7 7 5 3 1 0 2 4 5 5 6 7 6 7 6 6 5 5 4 5
3 4 3 5 4 5 8 16 9 10 6 17 25 31 32 30 29 27 23 22 17 16 17 16 14 14 14 11 6 4 3 2 1 1 2 3 5 5 5 5 7 7 8 7 8 7 8 7 8
4 8 12 8 2 6 10 11 8 7 10 21 27 30 28 28 27 24 19 18 17 16 14 14 12 13 11 10 8 8 5 4 3 3 3 4 6 7 7 9 8 8 8 8 8 9 9 9 10
4 12 14 3 1 3 7 4 10 8 18 30 29 29 25 26 27 23 22 21 20 17 15 12 14 13 13 12 11 10 8 7 7 7 5 6 6 8 9 10 10 12 12 12 11 12 13 13 14
2 3 3 1 2 2 5 3 4 17 24 28 28 26 24 23 23 23 20 20 20 21 19 17 16 16 15 15 14 12 11 11 11 9 9 9 9 9 10 11 13 14 14 14 13 14 16 15 15
2 2 4 2 6 3 3 5 4 20 25 25 25 25 24 23 22 19 19 17 17 15 20 18 18 16 16 16 15 14 14 14 14 13 12 12 12 12 12 13 15 15 16 15 16 14 15 18 20
3 2 4 4 10 3 2 2 8 18 20 22 22 26 24 23 22 21 20 20 19 18 17 18 19 17 17 17 18 17 17 18 18 17 17 16 15 15 15 15 16 18 19 18 18 21 21 19 18
15 5 3 5 7 7 2 2 0 9 16 19 21 23 24 23 23 21 20 19 18 20 18 18 20 20 20 19 21 21 22 22 21 21 21 20 20 20 19 19 19 19 20 21 22 23 24 21 17
14 6 5 3 5 2 6 5 6 5 8 9 10 20 24 21 19 19 20 19 17 17 19 21 22 23 23 23 24 25 27 26 26 26 25 25 26 26 24 22 21 21 22 21 23 25 24 23 19
9 17 7 3 5 7 8 11 7 8 5 12 9 9 18 21 20 17 16 15 17 20 21 23 23 23 22 25 25 25 26 29 30 30 29 30 31 29 29 26 24 23 22 22 22 25 24 22 19
2 8 5 4 2 3 5 7 4 4 6 10 9 7 6 9 11 11 11 15 17 19 21 22 23 25 25 26 26 29 31 33 34 33 32 31 31 30 30 29 27 25 24 23 24 25 24 24 22
6 7 6 8 4 3 3 3 4 4 7 7 16 14 13 9 6 6 8 8 14 17 17 17 18 20 23 25 28 30 31 32 32 32 32 31 31 31 31 31 30 27 25 25 26 25 29 28 26
3 13 10 7 6 2 2 2 7 8 10 4 12 9 6 5 2 3 2 1 4 8 12 13 17 20 22 24 27 29 30 32 32 33 34 34 35 33 31 29 29 27 26 26 28 31 28 27 26
12 14 12 5 2 1 6 5 4 3 6 3 10 15 9 6 6 5 4 3 2 4 6 8 10 12 14 16 19 22 25 28 32 34 35 35 34 33 31 30 30 28 27 28 29 29 27 28 27
14 6 3 2 1 4 0 5 8 4 4 7 13 14 12 7 9 9 11 13 13 13 11 9 8 8 10 13 15 17 20 23 27 30 32 33 35 37 35 32 30 28 27 27 28 27 25 29 29
10 5 4 5 4 3 2 5 5 2 9 16 14 12 14 13 12 14 18 20 20 21 19 17 16 15 16 16 17 18 20 22 24 25 29 33 34 33 31 31 30 29 28 28 27 27 29 31 31
6 4 5 6 3 3 3 3 9 6 6 15 14 16 18 15 17 20 20 19 19 20 20 21 19 18 19 21 22 22 21 21 22 22 25 29 31 30 30 30 31 30 29 29 29 29 31 32 29
4 7 4 2 4 2 3 1 2 6 9 9 13 20 19 17 16 13 17 22 21 21 21 21 21 22 23 23 24 24 24 23 23 22 23 26 28 29 30 31 31 31 30 30 31 30 31 30 30
2 3 3 4 4 5 4 2 4 2 9 10 13 16 14 11 8 13 17 13 12 12 14 15 17 20 22 24 25 26 26 25 25 26 26 28 29 31 32 32 33 33 33 32 33 32 33 33 32
1 5 5 4 3 1 3 2 2 6 13 20 16 15 13 10 11 10 11 13 16 21 24 26 27 27 26 26 26 26 27 27 29 31 30 30 33 34 35 34 35 36 35 35 36 35 35 35 34
Wind_Direction
75 113 137 81 41 61 305 310 120 87 57 73 76 83 101 67 55 134 139 167 154 151 144 140 124 127 135 137 136 141 154 147 141 129 128 124 143 150 138 117 106 77 52 29 42 52 43 47 58
152 130 120 32 86 6 287 209 88 105 115 91 71 118 50 76 110 135 149 167 159 152 148 144 130 124 136 138 137 137 141 140 132 126 119 115 132 155 168 167 161 196 15 14 53 53 45 41 60
127 124 269 140 179 211 208 104 122 100 108 100 88 74 68 98 132 146 158 162 153 151 151 149 138 126 127 146 145 149 140 131 129 118 114 111 124 135 151 175 212 239 250 338 44 46 49 56 67
336 218 248 178 244 273 147 149 121 115 110 102 118 75 86 163 135 151 159 161 157 149 149 150 145 138 129 139 140 142 138 126 117 109 107 111 124 133 150 154 97 104 178 101 45 37 54 60 62
42 264 305 259 255 313 97 133 125 110 116 112 113 106 89 154 155 156 160 171 167 147 152 151 147 148 141 135 139 129 127 125 118 109 97 94 107 119 124 107 76 74 71 61 50 40 39 40 47
9 274 6 248 16 143 113 134 130 134 143 110 106 106 112 151 162 158 166 179 169 158 160 156 150 150 149 144 141 133 123 127 121 114 103 93 89 89 98 89 47 36 31 26 28 39 42 36 38
31 50 237 269 174 174 175 144 137 129 130 121 133 96 140 156 154 154 167 178 179 171 167 160 156 153 153 154 145 143 144 136 132 120 112 92 84 77 69 53 22 11 23 28 20 24 31 31 33
301 151 279 262 147 248 166 145 139 129 153 138 141 152 172 162 155 155 168 175 175 179 176 168 161 160 155 153 156 157 132 123 110 104 74 67 74 87 58 41 28 12 5 11 9 7 14 11 15
261 44 242 253 148 227 162 129 100 133 133 98 104 159 172 162 158 161 168 172 184 195 180 173 167 162 162 158 158 161 159 159 166 184 194 220 285 261 342 259 326 324 329 329 326 329 337 333 324
193 166 225 82 335 200 172 138 125 125 120 93 99 141 155 161 161 166 172 172 185 189 183 173 169 174 171 169 169 175 178 184 206 222 203 206 315 297 291 293 302 300 292 287 287 299 301 299 315
221 206 319 30 351 312 156 127 107 132 147 159 140 147 159 164 166 174 178 182 188 180 170 182 187 187 187 196 193 192 197 180 191 226 188 227 230 251 264 279 282 291 295 267 284 289 290 292 304
-0 287 323 313 341 336 171 145 138 159 178 179 167 164 165 168 174 180 183 185 194 188 185 185 193 192 198 200 211 196 176 174 125 0 335 307 305 293 262 280 275 281 273 286 282 273 273 282 291
22 342 324 299 310 291 192 151 139 128 151 179 168 170 172 174 178 184 185 189 196 210 209 206 197 201 202 209 210 218 204 217 230 249 287 303 296 296 297 307 292 273 267 277 279 283 280 284 295
336 303 288 288 348 323 135 126 137 151 140 156 167 176 178 177 182 183 188 190 196 205 218 219 210 209 218 219 217 221 227 233 240 254 269 280 293 298 291 291 290 297 299 298 263 259 273 270 288
278 329 237 254 62 336 94 43 140 160 152 155 169 174 182 183 182 189 195 198 200 206 207 220 221 220 217 223 227 224 229 241 247 253 264 279 288 291 287 284 283 289 291 289 280 260 261 268 275
25 160 148 34 33 338 66 234 214 171 156 159 170 178 183 187 190 192 200 206 208 211 207 222 230 223 227 230 231 236 240 245 253 259 263 268 276 281 284 287 285 285 281 279 272 274 268 264 266
48 191 162 104 34 311 150 287 190 175 168 167 177 184 186 189 197 199 205 210 211 221 220 224 234 239 239 240 244 246 246 250 256 259 262 266 271 274 280 287 293 284 279 270 264 266 273 273 267
186 197 92 84 356 348 151 132 279 166 178 176 184 186 187 191 201 205 208 210 215 225 232 238 239 243 249 249 247 248 251 254 257 262 266 268 270 271 273 281 292 285 277 267 261 262 266 271 269
174 177 86 88 8 350 32 11 339 232 196 184 185 191 192 194 204 211 212 218 221 231 231 235 242 249 252 252 250 249 252 255 258 265 269 269 267 267 268 272 282 288 282 273 254 258 263 266 257
137 171 193 93 14 29 7 327 280 279 241 207 180 171 193 200 205 212 217 221 228 231 231 237 243 247 254 259 266 268 269 266 266 266 267 267 267 266 264 267 273 282 281 271 254 251 258 253 239
124 177 157 128 103 44 351 299 260 245 222 210 200 201 189 196 194 199 215 226 232 237 244 248 246 248 253 259 262 265 268 266 266 268 270 273 272 268 264 264 268 274 276 273 257 247 243 246 239
158 152 101 97 97 183 359 265 279 287 243 209 207 212 225 250 259 255 250 239 235 234 239 243 249 256 259 259 264 269 271 272 275 276 277 275 270 268 266 266 267 269 274 271 259 248 248 244 239
146 133 117 123 110 120 168 91 279 290 284 255 193 210 235 272 275 230 195 52 216 222 234 241 249 256 261 266 267 268 269 272 272 267 265 264 266 268 268 268 264 268 271 268 258 254 242 242 238
109 98 85 56 58 178 202 180 270 204 204 186 106 129 106 76 69 56 39 31 2 322 316 307 299 288 288 284 279 279 275 272 269 269 270 269 270 270 270 271 266 267 269 267 257 252 242 242 240
141 124 101 79 189 224 33 173 256 259 45 115 127 105 97 91 71 63 56 53 49 46 39 24 3 337 314 311 306 295 288 281 277 273 270 267 267 270 274 272 267 267 269 266 259 251 245 243 245
164 137 139 159 179 195 43 204 245 127 109 103 107 106 100 89 75 71 69 63 53 40 31 23 13 3 351 339 327 317 309 300 291 279 272 272 273 275 275 269 267 267 266 264 258 245 243 244 247
179 153 168 106 46 77 219 264 304 116 90 97 96 97 101 91 94 86 66 46 24 14 13 8 358 351 349 346 340 330 322 314 303 292 279 277 278 278 274 271 270 269 267 261 256 250 244 246 246
139 159 115 15 117 207 260 242 243 336 111 94 87 93 97 103 102 74 35 23 18 11 9 6 0 353 350 349 344 337 330 323 313 301 294 283 281 279 278 276 274 271 265 258 254 250 248 246 244
115 147 82 110 127 152 152 243 275 157 119 107 91 87 92 86 67 37 29 29 34 18 10 5 358 352 351 345 337 332 328 321 313 307 300 292 286 283 281 279 276 272 265 258 253 250 248 246 245
150 165 147 141 216 158 121 224 222 149 133 119 116 112 96 74 64 56 40 13 2 1 360 355 349 342 335 330 327 326 324 320 315 308 302 296 292 288 284 280 276 272 265 259 255 253 251 249 249